This demonstration page uses our WeatherBlox Daily Observations layout. Learn more.

Left ArrowRight Arrow

Hourly Observations for June 14, 2018

Temp ( °F °C ) Dew Point ( °F °C ) Humidity (%) Winds ( mph kmh ) Pressure ( in mb ) Visibility ( mi km ) Precip ( " mm )
12:53 am 00:53 Clear 65 18.3 59 15 81 81 Calm 30.02 1017 10 16 0.00 0.00
1:53 am 01:53 Clear 63 17.2 57 13.9 81 81 NNW 7 11 30.01 1016 10 16 0.00 0.00
2:53 am 02:53 Clear 62 16.7 56 13.3 80 80 NNW 3 6 30.02 1017 10 16 0.00 0.00
3:53 am 03:53 Clear 57 13.9 57 13.9 100 100 Calm 30.02 1017 10 16 0.00 0.00
4:53 am 04:53 Clear 56 13.3 55 12.8 97 97 Calm 30.03 1017 10 16 0.00 0.00
5:53 am 05:53 Clear 55 12.8 54 12.2 96 96 WNW 3 6 30.04 1017 10 16 0.00 0.00
6:53 am 06:53 Sunny 55 12.8 54 12.2 96 96 Calm 30.06 1018 10 16 0.00 0.00
7:53 am 07:53 Sunny 63 17.2 56 13.3 78 78 WNW 3 6 30.07 1018 10 16 0.00 0.00
8:53 am 08:53 Sunny 69 20.6 56 13.3 63 63 NE 5 7 30.07 1018 10 16 0.00 0.00
9:53 am 09:53 Sunny 73 22.8 59 15 62 62 E 7 11 30.08 1019 10 16 0.00 0.00
10:53 am 10:53 Sunny 75 23.9 57 13.9 54 54 ESE 3 6 30.08 1019 10 16 0.00 0.00
11:53 am 11:53 Sunny 79 26.1 56 13.3 45 45 undefined N/A 30.09 1019 10 16 0.00 0.00
12:53 pm 12:53 Sunny 80 26.7 56 13.3 44 44 E 6 9 30.08 1019 10 16 0.00 0.00
1:53 pm 13:53 Sunny 81 27.2 55 12.8 41 41 Calm 30.06 1018 10 16 0.00 0.00
2:53 pm 14:53 Sunny 82 27.8 56 13.3 41 41 Calm 30.06 1018 10 16 0.00 0.00
3:53 pm 15:53 Mostly Sunny 84 28.9 55 12.8 37 37 NNE 5 7 30.04 1017 10 16 0.00 0.00
4:53 pm 16:53 Sunny 84 28.9 54 12.2 36 36 NNW 5 7 30.03 1017 10 16 0.00 0.00
5:53 pm 17:53 Sunny 85 29.4 52 11.1 32 32 NE 5 7 30.03 1017 10 16 0.00 0.00
6:53 pm 18:53 Sunny 83 28.3 55 12.8 38 38 N 5 7 30.00 1016 10 16 0.00 0.00
7:53 pm 19:53 Sunny 77 25 61 16.1 58 58 N 3 6 30.01 1016 10 16 0.00 0.00
8:53 pm 20:53 Sunny 69 20.6 63 17.2 81 81 Calm 30.00 1016 10 16 0.00 0.00
9:39 pm 21:39 Mostly Clear 66 18.9 60 15.6 81 81 Calm 30.03 1017 10 16 0.00 0.00
9:53 pm 21:53 Hazy 66 18.9 59 15 78 78 WSW 3 6 30.01 1016 3 5 0.00 0.00
10:53 pm 22:53 Clear 65 18.3 62 16.7 90 90 Calm 30.04 1017 10 16 0.00 0.00
11:53 pm 23:53 Clear 64 17.8 60 15.6 87 87 Calm 30.02 1017 10 16 0.00 0.00

Powered by AerisWeather